This demonstration page uses our WeatherBlox Daily Observations layout. Learn more.

Left ArrowRight Arrow

Hourly Observations for November 8, 2022

Temp ( °F °C ) Dew Point ( °F °C ) Humidity (%) Winds ( mph kmh ) Pressure ( in mb ) Visibility ( mi km ) Precip ( " mm )
12:53 am 00:53 Cloudy 59 15 45 7.2 60 60 ESE 12 19 30.22 1023 10 16 0.00 0.00
1:53 am 01:53 Cloudy 59 15 48 8.9 67 67 SE 10 17 30.22 1024 10 16 0.00 0.00
2:53 am 02:53 Cloudy 60 15.6 52 11.1 75 75 SE 14 22 30.21 1023 10 16 0.00 0.00
3:12 am 03:12 Cloudy 60 15.6 53 11.7 78 78 SE 15 24 30.21 1023 10 16 0.00 0.00
3:53 am 03:53 Cloudy 60 15.6 55 12.8 83 83 SE 13 20 30.21 1023 10 16 0.00 0.00
4:53 am 04:53 Cloudy 59 15 55 12.8 87 87 SE 13 20 30.22 1023 10 16 0.00 0.00
5:53 am 05:53 Cloudy 58 14.4 54 12.2 87 87 SE 14 22 30.22 1023 10 16 0.00 0.00
6:53 am 06:53 Cloudy 58 14.4 53 11.7 84 84 SE 13 20 30.22 1023 10 16 0.00 0.00
7:53 am 07:53 Cloudy 59 15 55 12.8 87 87 SE 13 20 30.23 1024 10 16 0.00 0.00
8:53 am 08:53 Cloudy 59 15 55 12.8 87 87 SE 16 26 30.24 1024 10 16 0.00 0.00
9:53 am 09:53 Cloudy 60 15.6 56 13.3 86 86 SE 15 24 30.24 1024 10 16 0.00 0.00
10:53 am 10:53 Cloudy 62 16.7 59 15 90 90 SE 14 22 30.23 1024 10 16 0.00 0.00
11:53 am 11:53 Cloudy 63 17.2 60 15.6 90 90 SSE 15 24 30.22 1023 10 16 0.00 0.00
12:53 pm 12:53 Cloudy 65 18.3 62 16.7 90 90 SSE 17 28 30.18 1022 10 16 0.00 0.00
1:53 pm 13:53 Cloudy 66 18.9 63 17.2 90 90 SSE 15 24 30.16 1021 9 14 0.00 0.00
2:53 pm 14:53 Cloudy 66 18.9 63 17.2 90 90 SSE 16 26 30.14 1021 7 11 0.00 0.00
3:53 pm 15:53 Cloudy 67 19.4 64 17.8 90 90 SSE 12 19 30.13 1020 10 16 0.00 0.00
4:17 pm 16:17 Cloudy 68 20 64 17.8 87 87 SSE 13 20 30.10 1019 10 16 0.00 0.00
4:53 pm 16:53 Cloudy 68 20 64 17.8 87 87 SSE 15 24 30.11 1020 10 16 0.00 0.00
5:23 pm 17:23 Mostly Cloudy 67 19.4 64 17.8 90 90 SSE 14 22 30.09 1019 10 16 0.00 0.00
5:49 pm 17:49 Cloudy 66 19 64 18 94 94 SSE 15 24 30.10 1019 10 16 0.00 0.00
5:53 pm 17:53 Cloudy 67 19.4 64 17.8 90 90 SSE 14 22 30.12 1020 10 16 0.00 0.00
6:44 pm 18:44 Cloudy 67 19.4 64 17.8 90 90 SSE 17 28 30.10 1019 10 16 0.00 0.00
6:53 pm 18:53 Cloudy 67 19.4 64 17.8 90 90 SSE 18 30 30.12 1020 10 16 0.00 0.00
7:53 pm 19:53 Cloudy 67 19.4 64 17.8 90 90 SSE 22 35 30.10 1019 10 16 0.00 0.00
8:53 pm 20:53 Cloudy 67 19.4 64 17.8 90 90 SSE 20 31 30.10 1019 10 16 0.00 0.00
9:53 pm 21:53 Cloudy 67 19.4 64 17.8 90 90 S 20 31 30.12 1020 10 16 0.00 0.00
10:53 pm 22:53 Cloudy 66 18.9 63 17.2 90 90 S 18 30 30.11 1020 10 16 0.00 0.00
11:23 pm 23:23 Cloudy 67 19.4 63 17.2 87 87 S 15 24 30.10 1019 10 16 0.00 0.00
11:53 pm 23:53 Cloudy 67 19.4 63 17.2 87 87 S 18 30 30.11 1020 10 16 0.00 0.00

Powered by AerisWeather